Location: ?????
(31.8092°N, 35.2590°E)
Time: 02:51:02
(UTC+00:00)

Lacrosse 5 - Pass Details

Date: 28 October 2021
Orbit: 714 x 724 km, 57.0° (Epoch: 28 August)

Event Time Altitude Azimuth Distance (km) Brightness Sun altitude
Rises 17:12:05 0° 239° (WSW) 3,124 5.9 -30.1°
Reaches altitude 10° 17:14:38 10° 248° (WSW) 2,207 5.1 -30.6°
Maximum altitude 17:19:18 36° 314° (NW) 1,139 3.1 -31.6°
Enters shadow 17:19:23 36° 316° (NW) 1,140 3.1 -31.6°
